Location: Aufkirchen
(47.9603°N, 11.3653°E)
Time: 11:30:25
(UTC+01:00)

Tiros 1 - Pass Details

Date: 05 December 2020
Orbit: 630 x 663 km, 48.4° (Epoch: 21 January)

Event Time Altitude Azimuth Distance (km) Brightness Sun altitude
Rises 13:40:18 0° 234° (SW) 2,983 11.6 16.4°
Reaches altitude 10° 13:42:41 10° 230° (SW) 2,074 11.1 16.3°
Maximum altitude 13:47:20 52° 155° (SSE) 825 8.4 16.0°
Drops below altitude 10° 13:52:00 10° 79° (E) 2,080 9.5 15.6°
Sets 13:54:23 0° 75° (ENE) 2,992 10.2 15.4°
